CW0565 Weather Reports


time (UTC)temp
F
wind
direction
speed
knots
gust
knots
rain 1hr
in
rain 24hr
in
rain mn
in
humidity
%
barometer
mb
20260503021509 42 163 0.0 0.0 0.00 0.02 0.00 93 1008.5
20260503020010 43 164 0.0 0.0 0.00 0.02 0.00 93 1008.4
20260503014510 43 164 0.0 0.0 0.00 0.02 0.00 92 1008.4
20260503013010 43 164 0.0 0.9 0.00 0.02 0.00 92 1008.4
20260503011510 44 164 0.0 0.0 0.00 0.02 0.00 92 1008.4
20260503010013 44 164 0.0 0.0 0.00 0.02 0.00 91 1008.3
20260503004521 44 164 0.0 0.0 0.00 0.02 0.00 90 1008.3
20260503003011 45 164 0.0 0.0 0.00 0.02 0.00 90 1008.3
20260503001510 45 163 0.0 0.0 0.00 0.02 0.00 90 1008.4
20260503000010 46 164 0.0 0.0 0.00 0.02 0.00 89 1008.4
20260502234510 46 164 0.0 0.0 0.00 0.02 0.00 89 1008.4
20260502233012 47 164 0.0 0.0 0.00 0.02 0.00 88 1008.6
20260502231510 47 164 0.0 0.0 0.00 0.02 0.00 87 1008.8
20260502230012 48 164 0.0 0.0 0.00 0.02 0.00 87 1008.8
20260502224509 48 163 0.0 1.7 0.00 0.02 0.00 87 1008.7
20260502223009 49 164 0.0 0.0 0.00 0.02 0.00 86 1008.7
20260502221509 50 164 0.0 2.6 0.00 0.02 0.00 85 1008.6
20260502220010 50 164 0.9 4.3 0.00 0.02 0.02 85 1008.6
20260502214512 51 164 0.0 1.7 0.00 0.02 0.02 81 1008.8
20260502213010 50 165 0.0 2.6 0.00 0.02 0.02 81 1008.8
20260502211519 50 165 0.9 3.5 0.00 0.02 0.02 83 1009.2
20260502210015 50 165 0.9 2.6 0.00 0.02 0.02 84 1009.4
20260502204510 50 164 0.9 2.6 0.00 0.02 0.02 83 1009.3
20260502203011 50 165 0.0 2.6 0.00 0.02 0.02 83 1009.1
20260502201509 50 165 0.0 4.3 0.00 0.02 0.02 84 1009.1
20260502200010 50 165 2.6 5.2 0.00 0.02 0.02 85 1009.2
20260502194509 50 164 3.5 7.8 0.00 0.02 0.02 87 1009.2
20260502193009 50 163 3.5 5.2 0.00 0.02 0.02 88 1009.2
20260502191509 51 163 3.5 6.1 0.00 0.02 0.02 87 1008.8
20260502190010 51 165 2.6 7.0 0.00 0.02 0.02 90 1008.9
20260502184509 52 166 3.5 6.1 0.00 0.02 0.02 86 1008.9
20260502183018 52 161 3.5 6.1 0.00 0.02 0.02 84 1008.9
20260502181516 52 163 2.6 6.1 0.00 0.02 0.02 85 1009.1
20260502163017 58 166 2.6 6.1 0.01 0.01 0.01 57 1009.3
20260502161509 61 182 4.3 11.3 0.00 0.00 0.00 38 1009.8
20260502151511 66 242 3.5 10.4 0.00 0.00 0.00 27 1009.9
20260502123015 65 155 9.6 14.8 0.00 0.00 0.00 33 1010.5
20260502121513 65 166 7.8 14.8 0.00 0.00 0.00 33 1010.5
20260502114509 64 164 6.1 11.3 0.00 0.00 0.00 37 1010.7
20260502113009 65 165 6.1 12.2 0.00 0.00 0.00 40 1010.8
20260502111509 65 153 5.2 10.4 0.00 0.00 0.00 36 1010.8
20260502110010 64 130 6.1 9.6 0.00 0.00 0.00 34 1011.0
20260502104509 64 177 6.1 9.6 0.00 0.00 0.00 42 1011.1
20260502103011 65 139 1.7 7.8 0.00 0.00 0.00 31 1011.3
20260502101529 64 164 3.5 9.6 0.00 0.00 0.00 29 1011.7
20260502091511 62 184 4.3 9.6 0.00 0.00 0.00 35 1012.3
20260502071509 51 355 0.0 1.7 0.00 0.00 0.00 57 1013.2
20260502070012 50 355 0.0 0.9 0.00 0.00 0.00 60 1013.3
20260502064511 49 355 0.0 0.9 0.00 0.00 0.00 62 1013.5
20260502063010 47 355 0.0 0.9 0.00 0.00 0.00 64 1013.7
20260502061510 48 355 0.0 0.9 0.00 0.00 0.00 63 1013.9
20260502060013 47 355 0.0 0.9 0.00 0.00 0.00 65 1014.0
20260502054509 45 355 0.0 0.0 0.00 0.00 0.00 68 1014.2
20260502053010 43 355 0.0 0.9 0.00 0.00 0.00 72 1014.3
20260502051510 41 355 0.0 0.9 0.00 0.00 0.00 81 1014.3
20260502050010 38 355 0.0 1.7 0.00 0.00 0.00 84 1014.5
20260502044512 36 355 0.9 4.3 0.00 0.00 0.00 85 1014.6
20260502043010 36 14 1.7 4.3 0.00 0.00 0.00 85 1014.8
20260502041510 36 13 0.0 3.5 0.00 0.00 0.00 85 1015.0
20260502040010 36 15 0.9 3.5 0.00 0.00 0.00 85 1015.2
20260502034520 36 14 0.0 3.5 0.00 0.00 0.00 84 1015.3
20260502033010 36 14 0.9 4.3 0.00 0.00 0.00 84 1015.6
20260502031510 37 28 0.9 4.3 0.00 0.00 0.00 83 1015.9
20260502030010 37 13 1.7 4.3 0.00 0.00 0.00 82 1016.1
20260502024510 38 10 0.0 0.0 0.00 0.00 0.00 82 1016.3
20260502023010 38 9 0.0 1.7 0.00 0.00 0.00 82 1016.6